This is the latest recevied weather packets stored in our database for station/object KF7ROW. If no packets are shown the sender has not sent any weather packets the latest 10 day(s).
| Time | Temp. | Humidity | Pressure | Rain* | Wind** | Luminosity | Snow |
|---|---|---|---|---|---|---|---|
| 1777668979 | 13.33° C | 82% | 1022.8 hPa | 0 mm | - | 366 W/m² | - |
| 1777668677 | 13.33° C | 83% | 1022.6 hPa | 0 mm | - | 363 W/m² | - |
| 1777668373 | 13.33° C | 83% | 1022.7 hPa | 0 mm | - | 536 W/m² | - |
| 1777668069 | 13.33° C | 84% | 1022.6 hPa | 0 mm | - | 410 W/m² | - |
| 1777667766 | 13.33° C | 84% | 1022.7 hPa | 0 mm | - | 391 W/m² | - |
| 1777667464 | 13.33° C | 83% | 1022.7 hPa | 0 mm | - | 442 W/m² | - |
| 1777667161 | 13.33° C | 84% | 1022.7 hPa | 0 mm | - | 528 W/m² | - |
| 1777666857 | 13.33° C | 83% | 1022.8 hPa | 0 mm | - | 420 W/m² | - |
| 1777666555 | 13.33° C | 83% | 1022.9 hPa | 0 mm | - | 377 W/m² | - |
| 1777666251 | 13.33° C | 84% | 1022.7 hPa | 0 mm | - | 419 W/m² | - |
| 1777665948 | 13.33° C | 83% | 1022.8 hPa | 0 mm | - | 336 W/m² | - |
| 1777665645 | 13.33° C | 84% | 1022.8 hPa | 0 mm | - | 316 W/m² | - |
| 1777665343 | 13.33° C | 83% | 1022.9 hPa | 0 mm | - | 328 W/m² | - |
| 1777665038 | 13.33° C | 83% | 1022.8 hPa | 0 mm | - | 422 W/m² | - |
| 1777664734 | 13.33° C | 84% | 1022.8 hPa | 0 mm | - | 364 W/m² | - |
| 1777664430 | 13.33° C | 83% | 1022.8 hPa | 0 mm | - | 384 W/m² | - |
| 1777664127 | 13.33° C | 84% | 1023.1 hPa | 0 mm | - | 434 W/m² | - |
| 1777663826 | 13.33° C | 84% | 1022.9 hPa | 0 mm | - | 356 W/m² | - |
| 1777663522 | 13.33° C | 84% | 1022.8 hPa | 0 mm | - | 415 W/m² | - |
| 1777663220 | 13.33° C | 85% | 1023 hPa | 0 mm | - | 388 W/m² | - |
| 1777662917 | 12.78° C | 85% | 1023 hPa | 0 mm | - | 326 W/m² | - |
| 1777662615 | 13.33° C | 86% | 1023.2 hPa | 0 mm | - | 378 W/m² | - |
| 1777662310 | 13.33° C | 85% | 1023.2 hPa | 0 mm | - | 431 W/m² | - |
| 1777662006 | 13.33° C | 85% | 1023.1 hPa | 0 mm | - | 296 W/m² | - |
| 1777661702 | 13.33° C | 85% | 1023.3 hPa | 0 mm | - | 296 W/m² | - |
* Rain latest hour (hover to see other rain measurements)
** Current wind speed in m/s (hover to see current wind gust speed)